Time,TemperatureF,DewpointF,PressureIn,WindDirection,WindDirectionDegrees,WindSpeedMPH,WindSpeedGustMPH,Humidity,HourlyPrecipIn,Conditions,Clouds,dailyrainin,SoftwareType,DateUTC
2013-11-28 00:01:00,20.7,14.9,29.69,SE,135,2.5,5.4,78,0.00,,,0.00,WUHU216HW,2013-11-28 06:01:00,
2013-11-28 00:06:00,20.7,14.9,29.69,SSE,158,3.8,4.3,78,0.00,,,0.00,WUHU216HW,2013-11-28 06:06:00,
2013-11-28 00:11:00,20.5,14.7,29.69,SSW,203,2.9,4.3,78,0.00,,,0.00,WUHU216HW,2013-11-28 06:11:00,
2013-11-28 00:16:00,20.5,15.0,29.69,SSE,158,2.7,3.8,79,0.00,,,0.00,WUHU216HW,2013-11-28 06:16:00,
2013-11-28 00:21:00,20.5,15.0,29.68,SE,135,4.9,4.9,79,0.00,,,0.00,WUHU216HW,2013-11-28 06:21:00,
2013-11-28 00:26:00,20.5,15.0,29.68,ESE,113,2.2,4.9,79,0.00,,,0.00,WUHU216HW,2013-11-28 06:26:00,
2013-11-28 00:31:00,20.5,15.0,29.69,SSE,158,1.8,4.9,79,0.00,,,0.00,WUHU216HW,2013-11-28 06:31:00,
2013-11-28 00:36:00,20.5,15.0,29.68,SE,135,2.5,3.4,79,0.00,,,0.00,WUHU216HW,2013-11-28 06:36:00,
2013-11-28 00:41:00,20.5,15.0,29.68,SE,135,2.5,2.9,79,0.00,,,0.00,WUHU216HW,2013-11-28 06:41:00,
2013-11-28 00:46:00,20.5,15.0,29.68,ESE,113,2.2,3.4,79,0.00,,,0.00,WUHU216HW,2013-11-28 06:46:00,
2013-11-28 00:51:00,20.5,15.0,29.68,SE,135,2.5,3.4,79,0.00,,,0.00,WUHU216HW,2013-11-28 06:51:00,
2013-11-28 00:56:00,20.7,15.2,29.68,SE,135,2.2,2.7,79,0.00,,,0.00,WUHU216HW,2013-11-28 06:56:00,
2013-11-28 01:01:00,20.7,15.2,29.68,SE,135,1.6,2.5,79,0.00,,,0.00,WUHU216HW,2013-11-28 07:01:00,
2013-11-28 01:06:00,20.7,15.2,29.68,SE,135,1.8,2.2,79,0.00,,,0.00,WUHU216HW,2013-11-28 07:06:00,
2013-11-28 01:11:00,20.7,15.2,29.68,SSE,158,1.3,2.2,79,0.00,,,0.00,WUHU216HW,2013-11-28 07:11:00,
2013-11-28 01:16:00,20.5,15.0,29.68,South,180,1.1,1.8,79,0.00,,,0.00,WUHU216HW,2013-11-28 07:16:00,
2013-11-28 01:21:00,20.7,15.2,29.68,South,180,3.4,3.4,79,0.00,,,0.00,WUHU216HW,2013-11-28 07:21:00,
2013-11-28 01:26:00,20.7,15.5,29.67,SSE,158,2.7,3.4,80,0.00,,,0.00,WUHU216HW,2013-11-28 07:26:00,
2013-11-28 01:31:00,20.7,15.5,29.67,SE,135,2.0,3.4,80,0.00,,,0.00,WUHU216HW,2013-11-28 07:31:00,
2013-11-28 01:36:00,20.7,15.2,29.67,SSE,158,1.8,2.7,79,0.00,,,0.00,WUHU216HW,2013-11-28 07:36:00,
2013-11-28 01:41:00,20.7,15.2,29.68,South,180,2.5,2.7,79,0.00,,,0.00,WUHU216HW,2013-11-28 07:41:00,
2013-11-28 01:46:00,20.7,15.2,29.67,SSE,158,2.0,2.5,79,0.00,,,0.00,WUHU216HW,2013-11-28 07:46:00,
2013-11-28 01:51:00,20.7,15.2,29.67,SSE,158,2.5,3.1,79,0.00,,,0.00,WUHU216HW,2013-11-28 07:51:00,
2013-11-28 01:56:00,20.7,15.2,29.67,SSE,158,2.7,3.1,79,0.00,,,0.00,WUHU216HW,2013-11-28 07:56:00,
2013-11-28 02:01:00,20.7,15.2,29.67,SE,135,2.5,2.7,79,0.00,,,0.00,WUHU216HW,2013-11-28 08:01:00,
2013-11-28 02:06:00,20.7,14.9,29.67,SSE,158,2.5,2.7,78,0.00,,,0.00,WUHU216HW,2013-11-28 08:06:00,
2013-11-28 02:11:00,20.7,15.2,29.67,South,180,1.8,3.1,79,0.00,,,0.00,WUHU216HW,2013-11-28 08:11:00,
2013-11-28 02:16:00,20.7,14.9,29.66,SSE,158,1.8,3.1,78,0.00,,,0.00,WUHU216HW,2013-11-28 08:16:00,
2013-11-28 02:21:00,20.7,14.9,29.66,South,180,2.0,3.4,78,0.00,,,0.00,WUHU216HW,2013-11-28 08:21:00,
2013-11-28 02:26:00,20.7,14.9,29.66,SSE,158,2.0,3.4,78,0.00,,,0.00,WUHU216HW,2013-11-28 08:26:00,
2013-11-28 02:31:00,20.7,14.9,29.66,South,180,2.2,3.4,78,0.00,,,0.00,WUHU216HW,2013-11-28 08:31:00,
2013-11-28 02:36:00,20.7,14.9,29.66,South,180,3.6,3.6,78,0.00,,,0.00,WUHU216HW,2013-11-28 08:36:00,
2013-11-28 02:41:00,20.7,14.9,29.66,SSE,158,1.8,3.6,78,0.00,,,0.00,WUHU216HW,2013-11-28 08:41:00,
2013-11-28 02:46:00,20.5,14.7,29.66,SSE,158,3.1,4.0,78,0.00,,,0.00,WUHU216HW,2013-11-28 08:46:00,
2013-11-28 02:51:00,20.5,14.7,29.66,SSE,158,3.1,4.0,78,0.00,,,0.00,WUHU216HW,2013-11-28 08:51:00,
2013-11-28 02:56:00,20.5,14.7,29.66,South,180,1.8,3.4,78,0.00,,,0.00,WUHU216HW,2013-11-28 08:56:00,
2013-11-28 03:01:00,20.5,14.7,29.65,South,180,3.8,3.8,78,0.00,,,0.00,WUHU216HW,2013-11-28 09:01:00,
2013-11-28 03:06:00,20.5,14.7,29.65,South,180,2.5,4.0,78,0.00,,,0.00,WUHU216HW,2013-11-28 09:06:00,
2013-11-28 03:11:00,20.5,14.7,29.65,SE,135,2.2,4.0,78,0.00,,,0.00,WUHU216HW,2013-11-28 09:11:00,
2013-11-28 03:16:00,20.5,14.7,29.65,SE,135,3.1,3.4,78,0.00,,,0.00,WUHU216HW,2013-11-28 09:16:00,
2013-11-28 03:21:00,20.5,14.7,29.65,SSE,158,3.1,3.1,78,0.00,,,0.00,WUHU216HW,2013-11-28 09:21:00,
2013-11-28 03:26:00,20.5,14.7,29.65,SW,225,2.5,4.0,78,0.00,,,0.00,WUHU216HW,2013-11-28 09:26:00,
2013-11-28 03:31:00,20.5,14.7,29.65,South,180,3.6,4.0,78,0.00,,,0.00,WUHU216HW,2013-11-28 09:31:00,
2013-11-28 03:36:00,20.5,14.7,29.65,SSW,203,5.1,5.1,78,0.00,,,0.00,WUHU216HW,2013-11-28 09:36:00,
2013-11-28 03:41:00,20.5,14.7,29.65,SSW,203,4.0,5.1,78,0.00,,,0.00,WUHU216HW,2013-11-28 09:41:00,
2013-11-28 03:46:00,20.5,14.4,29.65,South,180,2.5,5.1,77,0.00,,,0.00,WUHU216HW,2013-11-28 09:46:00,
2013-11-28 03:51:00,20.3,14.2,29.65,SSW,203,4.0,4.3,77,0.00,,,0.00,WUHU216HW,2013-11-28 09:51:00,
2013-11-28 03:56:00,20.5,14.4,29.65,SSW,203,4.3,5.4,77,0.00,,,0.00,WUHU216HW,2013-11-28 09:56:00,
2013-11-28 04:01:00,20.3,14.2,29.65,SSE,158,4.3,5.4,77,0.00,,,0.00,WUHU216HW,2013-11-28 10:01:00,
2013-11-28 04:06:00,20.3,14.2,29.65,South,180,2.7,4.3,77,0.00,,,0.00,WUHU216HW,2013-11-28 10:06:00,
2013-11-28 04:11:00,20.3,14.2,29.65,SW,225,3.6,4.3,77,0.00,,,0.00,WUHU216HW,2013-11-28 10:11:00,
2013-11-28 04:16:00,20.3,14.2,29.65,SSE,158,4.3,4.3,77,0.00,,,0.00,WUHU216HW,2013-11-28 10:16:00,
2013-11-28 04:21:00,20.3,13.9,29.65,SSE,158,4.0,5.6,76,0.00,,,0.00,WUHU216HW,2013-11-28 10:21:00,
2013-11-28 04:26:00,20.3,13.9,29.65,SE,135,2.5,5.6,76,0.00,,,0.00,WUHU216HW,2013-11-28 10:26:00,
2013-11-28 04:31:00,20.3,13.9,29.65,SE,135,2.5,3.4,76,0.00,,,0.00,WUHU216HW,2013-11-28 10:31:00,
2013-11-28 04:36:00,20.3,13.9,29.65,South,180,3.4,3.6,76,0.00,,,0.00,WUHU216HW,2013-11-28 10:36:00,
2013-11-28 04:41:00,20.3,13.9,29.65,SSE,158,1.8,3.6,76,0.00,,,0.00,WUHU216HW,2013-11-28 10:41:00,
2013-11-28 04:46:00,20.3,13.9,29.64,SE,135,2.0,3.4,76,0.00,,,0.00,WUHU216HW,2013-11-28 10:46:00,
2013-11-28 04:51:00,20.5,14.0,29.64,SE,135,2.7,2.7,76,0.00,,,0.00,WUHU216HW,2013-11-28 10:51:00,
2013-11-28 04:56:00,20.5,14.0,29.64,South,180,2.5,2.7,76,0.00,,,0.00,WUHU216HW,2013-11-28 10:56:00,
2013-11-28 05:01:00,20.5,14.4,29.64,SSE,158,4.7,4.7,77,0.00,,,0.00,WUHU216HW,2013-11-28 11:01:00,
2013-11-28 05:06:00,20.3,14.2,29.64,SSE,158,4.9,4.9,77,0.00,,,0.00,WUHU216HW,2013-11-28 11:06:00,
2013-11-28 05:11:00,20.3,14.2,29.64,SE,135,3.8,5.4,77,0.00,,,0.00,WUHU216HW,2013-11-28 11:11:00,
2013-11-28 05:16:00,20.3,14.2,29.64,South,180,3.4,5.4,77,0.00,,,0.00,WUHU216HW,2013-11-28 11:16:00,
2013-11-28 05:21:00,20.3,14.2,29.64,SSW,203,2.9,4.5,77,0.00,,,0.00,WUHU216HW,2013-11-28 11:21:00,
2013-11-28 05:26:00,20.3,14.2,29.65,South,180,4.9,4.9,77,0.00,,,0.00,WUHU216HW,2013-11-28 11:26:00,
2013-11-28 05:31:00,20.3,14.2,29.65,South,180,3.1,4.9,77,0.00,,,0.00,WUHU216HW,2013-11-28 11:31:00,
2013-11-28 05:36:00,20.3,14.2,29.65,SSE,158,3.1,4.9,77,0.00,,,0.00,WUHU216HW,2013-11-28 11:36:00,
2013-11-28 05:41:00,20.5,14.4,29.65,SE,135,3.6,3.8,77,0.00,,,0.00,WUHU216HW,2013-11-28 11:41:00,
2013-11-28 05:46:00,20.5,14.4,29.65,South,180,3.1,3.8,77,0.00,,,0.00,WUHU216HW,2013-11-28 11:46:00,
2013-11-28 05:51:00,20.5,14.4,29.65,SSE,158,2.5,3.6,77,0.00,,,0.00,WUHU216HW,2013-11-28 11:51:00,
2013-11-28 05:56:00,20.5,14.4,29.65,SSE,158,2.5,4.9,77,0.00,,,0.00,WUHU216HW,2013-11-28 11:56:00,
2013-11-28 06:02:00,20.5,14.4,29.65,SE,135,2.9,4.9,77,0.00,,,0.00,WUHU216HW,2013-11-28 12:02:00,
2013-11-28 06:07:00,20.5,14.4,29.65,SE,135,3.6,4.0,77,0.00,,,0.00,WUHU216HW,2013-11-28 12:07:00,
2013-11-28 06:12:00,20.5,14.4,29.65,SE,135,4.3,4.3,77,0.00,,,0.00,WUHU216HW,2013-11-28 12:12:00,
2013-11-28 06:17:00,20.5,14.4,29.65,SSE,158,2.7,4.3,77,0.00,,,0.00,WUHU216HW,2013-11-28 12:17:00,
2013-11-28 06:22:00,20.5,14.4,29.66,SSE,158,3.4,3.4,77,0.00,,,0.00,WUHU216HW,2013-11-28 12:22:00,
2013-11-28 06:27:00,20.5,14.4,29.66,SE,135,2.9,3.6,77,0.00,,,0.00,WUHU216HW,2013-11-28 12:27:00,
2013-11-28 06:32:00,20.5,14.4,29.66,South,180,3.1,3.6,77,0.00,,,0.00,WUHU216HW,2013-11-28 12:32:00,
2013-11-28 06:37:00,20.5,14.4,29.66,SE,135,3.4,3.4,77,0.00,,,0.00,WUHU216HW,2013-11-28 12:37:00,
2013-11-28 06:42:00,20.5,14.4,29.66,SE,135,2.7,3.4,77,0.00,,,0.00,WUHU216HW,2013-11-28 12:42:00,
2013-11-28 06:47:00,20.5,14.4,29.66,SSE,158,2.7,3.4,77,0.00,,,0.00,WUHU216HW,2013-11-28 12:47:00,
2013-11-28 06:52:00,20.5,14.4,29.66,SSE,158,2.9,2.9,77,0.00,,,0.00,WUHU216HW,2013-11-28 12:52:00,
2013-11-28 06:57:00,20.5,14.4,29.66,SSE,158,2.5,2.9,77,0.00,,,0.00,WUHU216HW,2013-11-28 12:57:00,
2013-11-28 07:02:00,20.5,14.4,29.66,South,180,2.5,3.1,77,0.00,,,0.00,WUHU216HW,2013-11-28 13:02:00,
2013-11-28 07:07:00,20.5,14.4,29.66,SSE,158,3.4,4.7,77,0.00,,,0.00,WUHU216HW,2013-11-28 13:07:00,
2013-11-28 07:12:00,20.5,14.4,29.66,SSE,158,3.6,4.7,77,0.00,,,0.00,WUHU216HW,2013-11-28 13:12:00,
2013-11-28 07:17:00,20.5,14.4,29.66,SW,225,4.0,4.0,77,0.00,,,0.00,WUHU216HW,2013-11-28 13:17:00,
2013-11-28 07:22:00,20.5,14.4,29.66,SSW,203,1.8,4.0,77,0.00,,,0.00,WUHU216HW,2013-11-28 13:22:00,
2013-11-28 07:27:00,20.7,14.6,29.66,SSW,203,1.3,4.0,77,0.00,,,0.00,WUHU216HW,2013-11-28 13:27:00,
2013-11-28 07:32:00,20.7,14.6,29.67,SSW,203,2.0,2.7,77,0.00,,,0.00,WUHU216HW,2013-11-28 13:32:00,
2013-11-28 07:37:00,20.7,14.6,29.66,South,180,1.3,2.7,77,0.00,,,0.00,WUHU216HW,2013-11-28 13:37:00,
2013-11-28 07:42:00,20.7,14.6,29.66,South,180,1.6,2.5,77,0.00,,,0.00,WUHU216HW,2013-11-28 13:42:00,
2013-11-28 07:47:00,20.9,14.8,29.67,SSW,203,2.7,2.9,77,0.00,,,0.00,WUHU216HW,2013-11-28 13:47:00,
2013-11-28 07:52:00,21.1,15.0,29.67,SSE,158,2.5,3.4,77,0.00,,,0.00,WUHU216HW,2013-11-28 13:52:00,
2013-11-28 07:57:00,21.1,15.0,29.67,SE,135,1.8,3.4,77,0.00,,,0.00,WUHU216HW,2013-11-28 13:57:00,
2013-11-28 08:02:00,21.1,15.0,29.67,SE,135,3.1,3.1,77,0.00,,,0.00,WUHU216HW,2013-11-28 14:02:00,
2013-11-28 08:07:00,21.2,15.1,29.67,SE,135,1.8,4.0,77,0.00,,,0.00,WUHU216HW,2013-11-28 14:07:00,
2013-11-28 08:12:00,21.2,15.1,29.67,South,180,2.5,4.0,77,0.00,,,0.00,WUHU216HW,2013-11-28 14:12:00,
2013-11-28 08:17:00,21.2,15.1,29.67,SE,135,2.2,2.7,77,0.00,,,0.00,WUHU216HW,2013-11-28 14:17:00,
2013-11-28 08:22:00,21.4,15.3,29.67,SSE,158,1.8,2.7,77,0.00,,,0.00,WUHU216HW,2013-11-28 14:22:00,
2013-11-28 08:27:00,21.4,15.3,29.67,SSW,203,4.5,4.5,77,0.00,,,0.00,WUHU216HW,2013-11-28 14:27:00,
2013-11-28 08:32:00,21.6,15.5,29.67,SSW,203,2.7,4.5,77,0.00,,,0.00,WUHU216HW,2013-11-28 14:32:00,
2013-11-28 08:37:00,21.6,15.5,29.68,South,180,2.2,4.5,77,0.00,,,0.00,WUHU216HW,2013-11-28 14:37:00,
2013-11-28 08:42:00,21.8,15.7,29.68,SSW,203,3.4,4.0,77,0.00,,,0.00,WUHU216HW,2013-11-28 14:42:00,
2013-11-28 08:47:00,21.8,15.7,29.68,SSW,203,3.1,3.4,77,0.00,,,0.00,WUHU216HW,2013-11-28 14:47:00,
2013-11-28 08:52:00,22.0,15.9,29.68,SSW,203,3.6,3.6,77,0.00,,,0.00,WUHU216HW,2013-11-28 14:52:00,
2013-11-28 08:57:00,22.0,15.9,29.68,SSW,203,2.2,3.6,77,0.00,,,0.00,WUHU216HW,2013-11-28 14:57:00,
2013-11-28 09:02:00,22.1,16.0,29.68,SSW,203,4.7,4.7,77,0.00,,,0.00,WUHU216HW,2013-11-28 15:02:00,
2013-11-28 09:07:00,22.1,16.0,29.68,SSW,203,4.9,4.9,77,0.00,,,0.00,WUHU216HW,2013-11-28 15:07:00,
2013-11-28 09:12:00,22.3,15.8,29.68,SSW,203,2.7,4.9,76,0.00,,,0.00,WUHU216HW,2013-11-28 15:12:00,
2013-11-28 09:17:00,22.3,15.8,29.68,SSW,203,4.0,4.9,76,0.00,,,0.00,WUHU216HW,2013-11-28 15:17:00,
2013-11-28 09:22:00,22.5,16.0,29.68,SW,225,2.5,4.9,76,0.00,,,0.00,WUHU216HW,2013-11-28 15:22:00,
2013-11-28 09:27:00,22.7,15.9,29.68,SW,225,4.7,4.7,75,0.00,,,0.00,WUHU216HW,2013-11-28 15:27:00,
2013-11-28 09:32:00,22.7,15.9,29.68,SSW,203,4.0,5.1,75,0.00,,,0.00,WUHU216HW,2013-11-28 15:32:00,
2013-11-28 09:37:00,22.7,16.2,29.68,SW,225,3.1,5.1,76,0.00,,,0.00,WUHU216HW,2013-11-28 15:37:00,
2013-11-28 09:42:00,22.9,16.4,29.68,SW,225,2.7,4.3,76,0.00,,,0.00,WUHU216HW,2013-11-28 15:42:00,
2013-11-28 09:47:00,23.0,16.3,29.68,SSW,203,3.8,4.0,75,0.00,,,0.00,WUHU216HW,2013-11-28 15:47:00,
2013-11-28 09:52:00,23.0,16.6,29.68,SSW,203,3.8,4.5,76,0.00,,,0.00,WUHU216HW,2013-11-28 15:52:00,
2013-11-28 09:57:00,23.0,16.0,29.69,SW,225,2.5,4.7,74,0.00,,,0.00,WUHU216HW,2013-11-28 15:57:00,
2013-11-28 10:02:00,23.0,16.3,29.69,WSW,248,6.9,6.9,75,0.00,,,0.00,WUHU216HW,2013-11-28 16:02:00,
2013-11-28 10:07:00,23.0,16.0,29.69,SW,225,3.8,6.9,74,0.00,,,0.00,WUHU216HW,2013-11-28 16:07:00,
2013-11-28 10:12:00,23.2,16.1,29.69,WSW,248,4.0,6.9,74,0.00,,,0.00,WUHU216HW,2013-11-28 16:12:00,
2013-11-28 10:17:00,23.2,16.1,29.69,WSW,248,7.8,7.8,74,0.00,,,0.00,WUHU216HW,2013-11-28 16:17:00,
2013-11-28 10:22:00,23.2,15.8,29.69,WSW,248,4.3,7.8,73,0.00,,,0.00,WUHU216HW,2013-11-28 16:22:00,
2013-11-28 10:27:00,23.4,16.3,29.69,SW,225,3.4,7.8,74,0.00,,,0.00,WUHU216HW,2013-11-28 16:27:00,
2013-11-28 10:32:00,23.4,16.3,29.69,WSW,248,2.5,4.3,74,0.00,,,0.00,WUHU216HW,2013-11-28 16:32:00,
2013-11-28 10:37:00,23.2,16.1,29.69,WSW,248,1.8,4.9,74,0.00,,,0.00,WUHU216HW,2013-11-28 16:37:00,
2013-11-28 10:42:00,23.4,16.3,29.69,WSW,248,4.0,5.4,74,0.00,,,0.00,WUHU216HW,2013-11-28 16:42:00,
2013-11-28 10:47:00,23.2,16.1,29.69,SW,225,2.5,6.0,74,0.00,,,0.00,WUHU216HW,2013-11-28 16:47:00,
2013-11-28 10:52:00,23.2,15.8,29.69,WSW,248,2.5,6.0,73,0.00,,,0.00,WUHU216HW,2013-11-28 16:52:00,
2013-11-28 10:57:00,23.4,16.7,29.69,WSW,248,4.5,6.7,75,0.00,,,0.00,WUHU216HW,2013-11-28 16:57:00,
2013-11-28 11:02:00,23.4,16.7,29.69,NW,315,4.9,6.7,75,0.00,,,0.00,WUHU216HW,2013-11-28 17:02:00,
2013-11-28 11:07:00,23.4,16.3,29.69,West,270,5.4,5.4,74,0.00,,,0.00,WUHU216HW,2013-11-28 17:07:00,
2013-11-28 11:12:00,23.6,16.8,29.68,West,270,3.8,6.9,75,0.00,,,0.00,WUHU216HW,2013-11-28 17:12:00,
2013-11-28 11:17:00,23.6,16.8,29.68,WNW,293,8.1,8.1,75,0.00,,,0.00,WUHU216HW,2013-11-28 17:17:00,
2013-11-28 11:22:00,23.8,17.0,29.68,NNW,338,0.4,8.1,75,0.00,,,0.00,WUHU216HW,2013-11-28 17:22:00,
2013-11-28 11:27:00,23.9,17.1,29.68,NNW,338,5.4,8.1,75,0.00,,,0.00,WUHU216HW,2013-11-28 17:27:00,
2013-11-28 11:32:00,24.1,17.3,29.68,WNW,293,5.1,5.6,75,0.00,,,0.00,WUHU216HW,2013-11-28 17:32:00,
2013-11-28 11:37:00,24.3,17.5,29.68,West,270,4.7,5.4,75,0.00,,,0.00,WUHU216HW,2013-11-28 17:37:00,
2013-11-28 11:42:00,24.5,17.6,29.68,NW,315,5.4,6.0,75,0.00,,,0.00,WUHU216HW,2013-11-28 17:42:00,
2013-11-28 11:47:00,24.8,17.6,29.68,NW,315,6.7,6.7,74,0.00,,,0.00,WUHU216HW,2013-11-28 17:47:00,
2013-11-28 11:52:00,24.7,17.2,29.68,NW,315,2.9,8.5,73,0.00,,,0.00,WUHU216HW,2013-11-28 17:52:00,
2013-11-28 11:57:00,24.7,17.2,29.68,NW,315,4.7,8.5,73,0.00,,,0.00,WUHU216HW,2013-11-28 17:57:00,
2013-11-28 12:02:00,24.7,17.2,29.69,NW,315,6.3,8.5,73,0.00,,,0.00,WUHU216HW,2013-11-28 18:02:00,
2013-11-28 12:07:00,24.7,16.8,29.68,WSW,248,6.9,6.9,72,0.00,,,0.00,WUHU216HW,2013-11-28 18:07:00,
2013-11-28 12:12:00,24.8,17.0,29.69,NNW,338,8.1,8.1,72,0.00,,,0.00,WUHU216HW,2013-11-28 18:12:00,
2013-11-28 12:17:00,25.0,17.2,29.69,NNW,338,4.5,8.1,72,0.00,,,0.00,WUHU216HW,2013-11-28 18:17:00,
2013-11-28 12:22:00,25.2,17.4,29.69,NNW,338,6.9,8.3,72,0.00,,,0.00,WUHU216HW,2013-11-28 18:22:00,
2013-11-28 12:27:00,25.4,17.6,29.69,NW,315,4.3,8.3,72,0.00,,,0.00,WUHU216HW,2013-11-28 18:27:00,
2013-11-28 12:32:00,25.7,17.9,29.69,NNW,338,5.4,8.1,72,0.00,,,0.00,WUHU216HW,2013-11-28 18:32:00,
2013-11-28 12:37:00,25.7,17.6,29.69,West,270,8.1,8.1,71,0.00,,,0.00,WUHU216HW,2013-11-28 18:37:00,
2013-11-28 12:42:00,26.1,17.6,29.69,NNW,338,5.1,11.2,70,0.00,,,0.00,WUHU216HW,2013-11-28 18:42:00,
2013-11-28 12:47:00,25.9,17.7,29.70,NW,315,8.5,11.2,71,0.00,,,0.00,WUHU216HW,2013-11-28 18:47:00,
2013-11-28 12:52:00,26.1,17.6,29.70,NW,315,3.8,8.5,70,0.00,,,0.00,WUHU216HW,2013-11-28 18:52:00,
2013-11-28 12:57:00,25.9,17.5,29.70,NW,315,4.9,8.5,70,0.00,,,0.00,WUHU216HW,2013-11-28 18:57:00,
2013-11-28 13:02:00,25.9,17.5,29.70,NW,315,6.9,6.9,70,0.00,,,0.00,WUHU216HW,2013-11-28 19:02:00,
2013-11-28 13:07:00,26.3,17.8,29.70,NNW,338,7.6,7.6,70,0.00,,,0.00,WUHU216HW,2013-11-28 19:07:00,
2013-11-28 13:12:00,26.3,17.8,29.70,NW,315,6.9,7.6,70,0.00,,,0.00,WUHU216HW,2013-11-28 19:12:00,
2013-11-28 13:17:00,27.0,18.2,29.70,NNW,338,4.0,7.6,69,0.01,,,0.01,WUHU216HW,2013-11-28 19:17:00,
2013-11-28 13:22:00,26.5,17.6,29.70,NW,315,6.9,6.9,69,0.01,,,0.01,WUHU216HW,2013-11-28 19:22:00,
2013-11-28 13:27:00,26.8,18.4,29.70,NW,315,4.7,6.9,70,0.01,,,0.01,WUHU216HW,2013-11-28 19:27:00,
2013-11-28 13:32:00,26.3,17.5,29.71,NW,315,4.7,6.9,69,0.01,,,0.01,WUHU216HW,2013-11-28 19:32:00,
2013-11-28 13:37:00,26.6,17.8,29.71,NNW,338,3.1,5.1,69,0.01,,,0.01,WUHU216HW,2013-11-28 19:37:00,
2013-11-28 13:42:00,26.8,18.0,29.71,North,0,4.0,5.1,69,0.01,,,0.01,WUHU216HW,2013-11-28 19:42:00,
2013-11-28 13:47:00,26.5,17.3,29.71,NNW,338,3.6,4.0,68,0.01,,,0.01,WUHU216HW,2013-11-28 19:47:00,
2013-11-28 13:52:00,25.9,16.7,29.72,North,0,4.5,5.4,68,0.01,,,0.01,WUHU216HW,2013-11-28 19:52:00,
2013-11-28 13:57:00,25.9,17.1,29.72,NW,315,5.6,5.6,69,0.01,,,0.01,WUHU216HW,2013-11-28 19:57:00,
2013-11-28 14:02:00,26.3,17.5,29.72,NW,315,4.0,5.6,69,0.01,,,0.01,WUHU216HW,2013-11-28 20:02:00,
2013-11-28 14:07:00,26.3,17.1,29.72,NNW,338,4.0,5.6,68,0.01,,,0.01,WUHU216HW,2013-11-28 20:07:00,
2013-11-28 14:12:00,25.9,16.7,29.73,NW,315,2.5,5.6,68,0.01,,,0.01,WUHU216HW,2013-11-28 20:12:00,
2013-11-28 14:17:00,26.5,17.3,29.73,NW,315,3.8,5.8,68,0.00,,,0.01,WUHU216HW,2013-11-28 20:17:00,
2013-11-28 14:22:00,26.6,17.1,29.73,NNW,338,4.9,5.8,67,0.00,,,0.01,WUHU216HW,2013-11-28 20:22:00,
2013-11-28 14:27:00,26.3,16.7,29.74,NW,315,2.5,6.3,67,0.00,,,0.01,WUHU216HW,2013-11-28 20:27:00,
2013-11-28 14:32:00,26.1,16.9,29.74,North,0,3.6,6.3,68,0.00,,,0.01,WUHU216HW,2013-11-28 20:32:00,
2013-11-28 14:37:00,25.9,17.1,29.74,NNW,338,4.0,5.1,69,0.00,,,0.01,WUHU216HW,2013-11-28 20:37:00,
2013-11-28 14:42:00,26.1,17.6,29.74,NNW,338,3.4,6.3,70,0.00,,,0.01,WUHU216HW,2013-11-28 20:42:00,
2013-11-28 14:47:00,25.7,17.3,29.75,North,0,3.4,6.3,70,0.00,,,0.01,WUHU216HW,2013-11-28 20:47:00,
2013-11-28 14:52:00,25.7,17.3,29.75,NNW,338,3.4,6.5,70,0.00,,,0.01,WUHU216HW,2013-11-28 20:52:00,
2013-11-28 14:57:00,25.7,17.3,29.75,NNW,338,4.7,6.5,70,0.00,,,0.01,WUHU216HW,2013-11-28 20:57:00,
2013-11-28 15:02:00,25.9,17.5,29.76,NNW,338,4.7,4.7,70,0.00,,,0.01,WUHU216HW,2013-11-28 21:02:00,
2013-11-28 15:07:00,25.9,17.5,29.77,NNW,338,3.6,4.7,70,0.00,,,0.01,WUHU216HW,2013-11-28 21:07:00,
2013-11-28 15:12:00,25.9,17.1,29.77,NW,315,4.7,5.8,69,0.00,,,0.01,WUHU216HW,2013-11-28 21:12:00,
2013-11-28 15:17:00,25.9,17.5,29.77,NNW,338,3.8,5.8,70,0.00,,,0.01,WUHU216HW,2013-11-28 21:17:00,
2013-11-28 15:22:00,25.6,17.1,29.78,North,0,2.5,4.7,70,0.00,,,0.01,WUHU216HW,2013-11-28 21:22:00,
2013-11-28 15:27:00,25.6,17.5,29.78,NNW,338,3.4,4.3,71,0.00,,,0.01,WUHU216HW,2013-11-28 21:27:00,
2013-11-28 15:32:00,25.4,17.3,29.78,North,0,3.6,4.7,71,0.00,,,0.01,WUHU216HW,2013-11-28 21:32:00,
2013-11-28 15:37:00,25.0,16.9,29.78,NNW,338,3.1,4.7,71,0.00,,,0.01,WUHU216HW,2013-11-28 21:37:00,
2013-11-28 15:42:00,25.0,16.9,29.79,North,0,2.9,3.6,71,0.00,,,0.01,WUHU216HW,2013-11-28 21:42:00,
2013-11-28 15:47:00,25.0,16.9,29.79,NNW,338,3.4,3.4,71,0.00,,,0.01,WUHU216HW,2013-11-28 21:47:00,
2013-11-28 15:52:00,24.8,16.4,29.79,NW,315,3.6,3.6,70,0.00,,,0.01,WUHU216HW,2013-11-28 21:52:00,
2013-11-28 15:57:00,24.7,16.2,29.79,NNW,338,2.5,4.3,70,0.00,,,0.01,WUHU216HW,2013-11-28 21:57:00,
2013-11-28 16:02:00,24.5,16.0,29.80,NNW,338,2.2,4.3,70,0.00,,,0.01,WUHU216HW,2013-11-28 22:02:00,
2013-11-28 16:07:00,24.5,16.4,29.81,NNW,338,2.7,3.4,71,0.00,,,0.01,WUHU216HW,2013-11-28 22:07:00,
2013-11-28 16:12:00,24.3,16.6,29.81,NNW,338,3.4,3.8,72,0.00,,,0.01,WUHU216HW,2013-11-28 22:12:00,
2013-11-28 16:17:00,24.1,16.4,29.81,NNW,338,2.5,3.8,72,0.00,,,0.01,WUHU216HW,2013-11-28 22:17:00,
2013-11-28 16:22:00,23.9,16.2,29.81,North,0,1.6,3.4,72,0.00,,,0.01,WUHU216HW,2013-11-28 22:22:00,
2013-11-28 16:27:00,23.9,16.2,29.81,NNW,338,3.4,3.4,72,0.00,,,0.01,WUHU216HW,2013-11-28 22:27:00,
2013-11-28 16:32:00,23.8,16.0,29.81,NNW,338,2.0,3.4,72,0.00,,,0.01,WUHU216HW,2013-11-28 22:32:00,
2013-11-28 16:37:00,23.4,16.0,29.82,NNW,338,1.1,3.4,73,0.00,,,0.01,WUHU216HW,2013-11-28 22:37:00,
2013-11-28 16:42:00,23.4,16.0,29.82,NNW,338,1.8,2.7,73,0.00,,,0.01,WUHU216HW,2013-11-28 22:42:00,
2013-11-28 16:47:00,23.2,15.8,29.82,NNW,338,1.8,2.7,73,0.00,,,0.01,WUHU216HW,2013-11-28 22:47:00,
2013-11-28 16:52:00,23.0,15.7,29.83,North,0,1.3,2.2,73,0.00,,,0.01,WUHU216HW,2013-11-28 22:52:00,
2013-11-28 16:57:00,22.9,15.9,29.83,NNW,338,1.6,2.2,74,0.00,,,0.01,WUHU216HW,2013-11-28 22:57:00,
2013-11-28 17:02:00,22.9,15.9,29.84,NNW,338,1.3,2.5,74,0.00,,,0.01,WUHU216HW,2013-11-28 23:02:00,
2013-11-28 17:07:00,22.9,15.9,29.84,NNW,338,1.6,2.5,74,0.00,,,0.01,WUHU216HW,2013-11-28 23:07:00,
2013-11-28 17:12:00,22.9,15.9,29.84,NNW,338,1.1,1.6,74,0.00,,,0.01,WUHU216HW,2013-11-28 23:12:00,
2013-11-28 17:17:00,22.9,15.9,29.84,NNW,338,0.9,1.8,74,0.00,,,0.01,WUHU216HW,2013-11-28 23:17:00,
2013-11-28 17:22:00,22.7,15.3,29.85,NNW,338,0.7,1.8,73,0.00,,,0.01,WUHU216HW,2013-11-28 23:22:00,
2013-11-28 17:27:00,22.7,15.3,29.85,NW,315,2.2,2.5,73,0.00,,,0.01,WUHU216HW,2013-11-28 23:27:00,
2013-11-28 17:32:00,22.7,15.3,29.85,NW,315,1.8,3.4,73,0.00,,,0.01,WUHU216HW,2013-11-28 23:32:00,
2013-11-28 17:37:00,22.5,15.1,29.85,NNW,338,1.6,3.4,73,0.00,,,0.01,WUHU216HW,2013-11-28 23:37:00,
2013-11-28 17:42:00,22.3,14.9,29.85,NW,315,2.0,3.4,73,0.00,,,0.01,WUHU216HW,2013-11-28 23:42:00,
2013-11-28 17:47:00,22.3,14.9,29.86,NW,315,2.5,4.0,73,0.00,,,0.01,WUHU216HW,2013-11-28 23:47:00,
2013-11-28 17:52:00,22.1,15.1,29.86,NW,315,2.0,4.0,74,0.00,,,0.01,WUHU216HW,2013-11-28 23:52:00,
2013-11-28 17:57:00,22.0,15.0,29.87,NW,315,1.8,3.4,74,0.00,,,0.01,WUHU216HW,2013-11-28 23:57:00,
2013-11-28 18:02:00,22.0,15.0,29.87,NW,315,2.2,3.4,74,0.00,,,0.01,WUHU216HW,2013-11-29 00:02:00,
2013-11-28 18:07:00,21.8,14.8,29.87,NNW,338,1.6,2.5,74,0.00,,,0.01,WUHU216HW,2013-11-29 00:07:00,
2013-11-28 18:12:00,21.8,14.8,29.87,NW,315,2.5,2.5,74,0.00,,,0.01,WUHU216HW,2013-11-29 00:12:00,
2013-11-28 18:16:00,21.6,14.6,29.87,NNE,23,1.8,2.5,74,0.00,,,0.01,WUHU216HW,2013-11-29 00:16:00,
2013-11-28 18:22:00,21.6,14.6,29.87,NNW,338,0.9,2.5,74,0.00,,,0.01,WUHU216HW,2013-11-29 00:22:00,
2013-11-28 18:27:00,21.8,14.4,29.87,NW,315,2.7,2.7,73,0.00,,,0.01,WUHU216HW,2013-11-29 00:27:00,
2013-11-28 18:32:00,22.0,14.6,29.88,NW,315,3.6,4.0,73,0.00,,,0.01,WUHU216HW,2013-11-29 00:32:00,
2013-11-28 18:37:00,21.8,14.4,29.88,NW,315,2.2,4.0,73,0.00,,,0.01,WUHU216HW,2013-11-29 00:37:00,
2013-11-28 18:42:00,21.6,14.2,29.88,NNW,338,2.7,3.6,73,0.00,,,0.01,WUHU216HW,2013-11-29 00:42:00,
2013-11-28 18:47:00,21.4,14.0,29.88,NW,315,1.8,2.7,73,0.00,,,0.01,WUHU216HW,2013-11-29 00:47:00,
2013-11-28 18:59:00,21.1,13.7,29.89,NW,315,2.0,3.4,73,0.00,,,0.01,WUHU216HW,2013-11-29 00:59:00,
2013-11-28 19:04:00,20.9,13.5,29.89,NW,315,2.7,3.4,73,0.00,,,0.01,WUHU216HW,2013-11-29 01:04:00,
2013-11-28 19:09:00,20.7,13.3,29.89,NW,315,1.8,3.1,73,0.00,,,0.01,WUHU216HW,2013-11-29 01:09:00,
2013-11-28 19:14:00,20.7,13.3,29.89,NW,315,2.0,3.1,73,0.00,,,0.01,WUHU216HW,2013-11-29 01:14:00,
2013-11-28 19:19:00,20.5,13.1,29.89,NW,315,2.0,2.5,73,0.00,,,0.01,WUHU216HW,2013-11-29 01:19:00,
2013-11-28 19:24:00,20.5,13.5,29.89,WNW,293,2.5,3.1,74,0.00,,,0.01,WUHU216HW,2013-11-29 01:24:00,
2013-11-28 19:29:00,20.3,13.3,29.90,WNW,293,2.5,3.1,74,0.00,,,0.01,WUHU216HW,2013-11-29 01:29:00,
2013-11-28 19:34:00,20.2,13.2,29.90,WNW,293,1.8,2.5,74,0.00,,,0.01,WUHU216HW,2013-11-29 01:34:00,
2013-11-28 19:39:00,20.0,13.0,29.90,NW,315,1.3,2.5,74,0.00,,,0.01,WUHU216HW,2013-11-29 01:39:00,
2013-11-28 19:44:00,19.8,12.8,29.90,NW,315,1.8,3.4,74,0.00,,,0.01,WUHU216HW,2013-11-29 01:44:00,
2013-11-28 19:49:00,19.4,12.7,29.90,NW,315,3.1,3.4,75,0.00,,,0.01,WUHU216HW,2013-11-29 01:49:00,
2013-11-28 19:54:00,19.1,12.1,29.90,NW,315,3.4,3.4,74,0.00,,,0.01,WUHU216HW,2013-11-29 01:54:00,
2013-11-28 19:59:00,19.1,12.1,29.90,NW,315,2.5,3.4,74,0.00,,,0.01,WUHU216HW,2013-11-29 01:59:00,
2013-11-28 20:04:00,19.1,12.1,29.90,NW,315,2.0,3.4,74,0.00,,,0.01,WUHU216HW,2013-11-29 02:04:00,
2013-11-28 20:09:00,19.1,12.1,29.91,NW,315,1.8,3.1,74,0.00,,,0.01,WUHU216HW,2013-11-29 02:09:00,
2013-11-28 20:14:00,19.1,12.3,29.91,NW,315,2.9,3.1,75,0.00,,,0.01,WUHU216HW,2013-11-29 02:14:00,
2013-11-28 20:19:00,18.9,12.2,29.91,NW,315,1.8,2.9,75,0.00,,,0.01,WUHU216HW,2013-11-29 02:19:00,
2013-11-28 20:24:00,18.9,12.2,29.91,WNW,293,2.5,2.9,75,0.00,,,0.01,WUHU216HW,2013-11-29 02:24:00,
2013-11-28 20:29:00,18.7,12.0,29.92,WNW,293,2.5,3.1,75,0.00,,,0.01,WUHU216HW,2013-11-29 02:29:00,
2013-11-28 20:34:00,18.7,12.0,29.92,WNW,293,2.5,3.1,75,0.00,,,0.01,WUHU216HW,2013-11-29 02:34:00,
2013-11-28 20:39:00,18.5,11.9,29.92,WNW,293,2.5,2.5,75,0.00,,,0.01,WUHU216HW,2013-11-29 02:39:00,
2013-11-28 20:44:00,18.4,11.7,29.92,WNW,293,1.3,2.5,75,0.00,,,0.01,WUHU216HW,2013-11-29 02:44:00,
2013-11-28 20:49:00,18.0,11.4,29.92,WNW,293,1.1,2.5,75,0.00,,,0.01,WUHU216HW,2013-11-29 02:49:00,
2013-11-28 20:54:00,17.6,11.0,29.92,WNW,293,1.1,1.8,75,0.00,,,0.01,WUHU216HW,2013-11-29 02:54:00,
2013-11-28 20:59:00,17.6,11.0,29.92,WNW,293,2.7,2.7,75,0.00,,,0.01,WUHU216HW,2013-11-29 02:59:00,
2013-11-28 21:04:00,17.5,10.8,29.93,WNW,293,3.6,3.6,75,0.00,,,0.01,WUHU216HW,2013-11-29 03:04:00,
2013-11-28 21:09:00,17.5,11.1,29.93,NW,315,2.7,3.6,76,0.00,,,0.01,WUHU216HW,2013-11-29 03:09:00,
2013-11-28 21:14:00,17.5,11.1,29.93,NW,315,2.7,4.0,76,0.00,,,0.01,WUHU216HW,2013-11-29 03:14:00,
2013-11-28 21:19:00,17.5,11.1,29.93,NW,315,2.5,4.0,76,0.00,,,0.01,WUHU216HW,2013-11-29 03:19:00,
2013-11-28 21:24:00,17.5,11.1,29.94,NW,315,2.5,3.1,76,0.00,,,0.01,WUHU216HW,2013-11-29 03:24:00,
2013-11-28 21:29:00,17.5,11.1,29.94,NW,315,3.1,4.0,76,0.00,,,0.01,WUHU216HW,2013-11-29 03:29:00,
2013-11-28 21:34:00,17.5,11.1,29.94,NW,315,3.1,4.0,76,0.00,,,0.01,WUHU216HW,2013-11-29 03:34:00,
2013-11-28 21:39:00,17.3,10.9,29.94,NW,315,2.5,3.8,76,0.00,,,0.01,WUHU216HW,2013-11-29 03:39:00,
2013-11-28 21:44:00,17.3,10.9,29.94,NW,315,3.1,3.4,76,0.00,,,0.01,WUHU216HW,2013-11-29 03:44:00,
2013-11-28 21:49:00,17.1,11.1,29.94,NW,315,2.7,3.1,77,0.00,,,0.01,WUHU216HW,2013-11-29 03:49:00,
2013-11-28 21:54:00,16.9,10.9,29.94,WNW,293,3.1,3.1,77,0.00,,,0.01,WUHU216HW,2013-11-29 03:54:00,
2013-11-28 21:59:00,16.9,10.9,29.94,WNW,293,2.9,3.1,77,0.00,,,0.01,WUHU216HW,2013-11-29 03:59:00,
2013-11-28 22:04:00,16.9,10.9,29.94,WNW,293,3.4,3.4,77,0.00,,,0.01,WUHU216HW,2013-11-29 04:04:00,
2013-11-28 22:09:00,16.9,10.9,29.95,WNW,293,3.4,3.4,77,0.00,,,0.01,WUHU216HW,2013-11-29 04:09:00,
2013-11-28 22:14:00,16.9,10.9,29.95,WNW,293,3.6,3.6,77,0.00,,,0.01,WUHU216HW,2013-11-29 04:14:00,
2013-11-28 22:19:00,16.7,10.7,29.95,WNW,293,2.7,3.8,77,0.00,,,0.01,WUHU216HW,2013-11-29 04:19:00,
2013-11-28 22:24:00,16.7,11.0,29.95,WNW,293,3.4,3.8,78,0.00,,,0.01,WUHU216HW,2013-11-29 04:24:00,
2013-11-28 22:29:00,16.6,10.9,29.95,NW,315,2.5,3.4,78,0.00,,,0.01,WUHU216HW,2013-11-29 04:29:00,
2013-11-28 22:34:00,16.6,10.9,29.95,NW,315,2.2,3.4,78,0.00,,,0.01,WUHU216HW,2013-11-29 04:34:00,
2013-11-28 22:39:00,16.6,10.9,29.95,WNW,293,1.8,3.4,78,0.00,,,0.01,WUHU216HW,2013-11-29 04:39:00,
2013-11-28 22:44:00,16.6,10.9,29.96,WNW,293,2.9,3.4,78,0.00,,,0.01,WUHU216HW,2013-11-29 04:44:00,
2013-11-28 22:49:00,16.6,10.9,29.96,WNW,293,2.9,3.1,78,0.00,,,0.01,WUHU216HW,2013-11-29 04:49:00,
2013-11-28 22:54:00,16.4,10.7,29.96,NW,315,2.2,3.8,78,0.00,,,0.01,WUHU216HW,2013-11-29 04:54:00,
2013-11-28 22:59:00,16.2,10.5,29.96,NW,315,2.7,3.8,78,0.00,,,0.01,WUHU216HW,2013-11-29 04:59:00,
2013-11-28 23:01:00,16.0,10.4,29.96,NW,315,2.5,3.8,78,0.00,,,0.01,WUHU216HW,2013-11-29 05:01:00,
2013-11-28 23:02:00,16.0,10.4,29.96,NW,315,2.9,2.9,78,0.00,,,0.01,WUHU216HW,2013-11-29 05:02:00,
2013-11-28 23:07:00,16.2,10.5,29.96,NW,315,4.3,4.3,78,0.00,,,0.01,WUHU216HW,2013-11-29 05:07:00,
2013-11-28 23:12:00,16.2,10.5,29.97,NW,315,3.4,4.7,78,0.00,,,0.01,WUHU216HW,2013-11-29 05:12:00,
2013-11-28 23:17:00,16.2,10.5,29.97,NW,315,3.1,4.7,78,0.00,,,0.01,WUHU216HW,2013-11-29 05:17:00,
2013-11-28 23:22:00,15.8,10.2,29.97,NW,315,3.4,4.3,78,0.00,,,0.01,WUHU216HW,2013-11-29 05:22:00,
2013-11-28 23:27:00,15.7,10.4,29.97,WNW,293,3.1,4.3,79,0.00,,,0.01,WUHU216HW,2013-11-29 05:27:00,
2013-11-28 23:32:00,15.8,10.5,29.97,WNW,293,4.0,4.0,79,0.00,,,0.01,WUHU216HW,2013-11-29 05:32:00,
2013-11-28 23:37:00,15.8,10.5,29.97,WNW,293,2.7,4.0,79,0.00,,,0.01,WUHU216HW,2013-11-29 05:37:00,
2013-11-28 23:42:00,16.0,10.6,29.97,WNW,293,4.7,4.7,79,0.00,,,0.01,WUHU216HW,2013-11-29 05:42:00,
2013-11-28 23:47:00,15.8,10.5,29.97,WNW,293,3.4,4.7,79,0.00,,,0.01,WUHU216HW,2013-11-29 05:47:00,
2013-11-28 23:52:00,15.8,10.5,29.98,WNW,293,4.7,4.7,79,0.00,,,0.01,WUHU216HW,2013-11-29 05:52:00,
2013-11-28 23:57:00,15.8,10.5,29.98,WNW,293,3.6,4.7,79,0.00,,,0.01,WUHU216HW,2013-11-29 05:57:00,